471  
ASCA42 TJSJ 221810  
RWRPR  
PUERTO RICO/U.S. VIRGIN ISLANDS HOURLY WEATHER ROUNDUP  
NATIONAL WEATHER SERVICE SAN JUAN PR  
200 PM AST WED NOV 22 2017  
 
PRZ001>002-007>008-010-221900-  
PUERTO RICO  
 
CITY SKY/WX TMP DP RH WIND PRES REMARKS
 
SAN JUAN LMM MOSUNNY 88 75 66 E12 29.89F HX 97  
AGUADILLA SUNNY 84 72 65 NE7 29.92F  

 
 
VIZ001>002-221900-  
U.S. VIRGIN ISLANDS  
 
CITY SKY/WX TMP DP RH WIND PRES REMARKS
 
CHARLOTTE AMA N/A N/A N/A N/A MISG 29.91F  

 
 
HOURLY WEATHER ROUNDUP FOR THE NEWS MEDIA  
 
CITY SKY/WX TMP DP RH WIND PRES REMARKS
 
ORLANDO MOSUNNY 78 65 63 N7 29.94F  
NEW YORK PTSUNNY 52 44 74 NW23 29.87F  
NEWARK PTSUNNY 53 41 63 NW16G25 29.88F  
CHICAGO MOSUNNY 32 14 47 W8 30.33F WCI 25  
HARTFORD RAIN 53 52 96 E6 29.79F FOG  
BOSTON LGT RAIN 51 51 100 SE8 29.79F FOG  
DALLAS PTSUNNY 51 23 33 N10 30.36F  
PHILADELPHIA MOSUNNY 56 34 43 W17G26 29.93R  
LOS ANGELES SUNNY 85 39 19 E6 30.07R  
WASHINGTON DC MOSUNNY 51 30 44 NW22G28 30.03S  
 
CLICK HERE TO GO TO PREVIOUS BULLETINS.

The Nexlab PR Page Main Text Page